Time,TemperatureF,DewpointF,PressureIn,WindDirection,WindDirectionDegrees,WindSpeedMPH,WindSpeedGustMPH,Humidity,HourlyPrecipIn,Conditions,Clouds,dailyrainin,SoftwareType,DateUTC
2013-01-29 00:08:00,31.5,31.0,30.23,ESE,111,1.0,2.0,97,0.00,,,0.00,weatherlink.com 1.10,2013-01-29 05:08:00,
2013-01-29 00:23:00,31.6,31.0,30.23,ESE,111,0.0,0.0,97,0.00,,,0.00,weatherlink.com 1.10,2013-01-29 05:23:00,
2013-01-29 00:38:00,31.6,31.0,30.22,ESE,111,0.0,0.0,97,0.00,,,0.00,weatherlink.com 1.10,2013-01-29 05:38:00,
2013-01-29 00:53:00,31.7,31.0,30.22,ESE,111,0.0,0.0,97,0.00,,,0.00,weatherlink.com 1.10,2013-01-29 05:53:00,
2013-01-29 01:08:00,31.9,31.0,30.22,ESE,111,0.0,0.0,97,0.00,,,0.00,weatherlink.com 1.10,2013-01-29 06:08:00,
2013-01-29 01:23:00,32.1,31.0,30.22,ESE,111,0.0,1.0,97,0.00,,,0.00,weatherlink.com 1.10,2013-01-29 06:23:00,
2013-01-29 01:38:00,32.9,32.0,30.23,SSW,207,1.0,3.0,98,0.00,,,0.00,weatherlink.com 1.10,2013-01-29 06:38:00,
2013-01-29 01:53:00,34.3,34.0,30.24,South,188,1.0,5.0,98,0.00,,,0.00,weatherlink.com 1.10,2013-01-29 06:53:00,
2013-01-29 02:08:00,34.9,34.0,30.24,SSE,168,1.0,5.0,98,0.00,,,0.00,weatherlink.com 1.10,2013-01-29 07:08:00,
2013-01-29 02:23:00,35.4,35.0,30.25,South,189,0.0,5.0,97,0.00,,,0.00,weatherlink.com 1.10,2013-01-29 07:23:00,
2013-01-29 02:38:00,36.1,35.0,30.25,SSW,210,0.0,7.0,97,0.00,,,0.00,weatherlink.com 1.10,2013-01-29 07:38:00,
2013-01-29 02:53:00,36.8,36.0,30.25,SE,134,2.0,8.0,96,0.00,,,0.00,weatherlink.com 1.10,2013-01-29 07:53:00,
2013-01-29 03:08:00,37.3,36.0,30.24,SSE,155,1.0,7.0,95,0.02,,,0.02,weatherlink.com 1.10,2013-01-29 08:08:00,
2013-01-29 03:23:00,37.3,36.0,30.24,SSW,195,4.0,5.0,95,0.03,,,0.03,weatherlink.com 1.10,2013-01-29 08:23:00,
2013-01-29 03:38:00,37.7,37.0,30.24,SSW,209,0.0,5.0,96,0.03,,,0.03,weatherlink.com 1.10,2013-01-29 08:38:00,
2013-01-29 03:53:00,38.4,37.0,30.25,SE,146,3.0,7.0,95,0.04,,,0.04,weatherlink.com 1.10,2013-01-29 08:53:00,
2013-01-29 04:08:00,38.3,37.0,30.25,SSW,196,3.0,5.0,95,0.04,,,0.06,weatherlink.com 1.10,2013-01-29 09:08:00,
2013-01-29 04:23:00,38.3,37.0,30.25,SSW,203,2.0,5.0,95,0.04,,,0.07,weatherlink.com 1.10,2013-01-29 09:23:00,
2013-01-29 04:38:00,38.6,37.0,30.25,SSW,213,4.0,9.0,95,0.05,,,0.08,weatherlink.com 1.10,2013-01-29 09:38:00,
2013-01-29 04:53:00,39.2,38.0,30.25,SSE,150,6.0,12.0,94,0.05,,,0.10,weatherlink.com 1.10,2013-01-29 09:53:00,
2013-01-29 05:08:00,39.6,38.0,30.27,South,187,1.0,10.0,93,0.05,,,0.11,weatherlink.com 1.10,2013-01-29 10:08:00,
2013-01-29 05:23:00,39.5,38.0,30.27,SSW,194,0.0,10.0,93,0.06,,,0.13,weatherlink.com 1.10,2013-01-29 10:23:00,
2013-01-29 05:38:00,39.1,38.0,30.27,SSW,200,3.0,7.0,94,0.07,,,0.15,weatherlink.com 1.10,2013-01-29 10:38:00,
2013-01-29 05:54:00,39.2,37.0,30.28,South,184,0.0,7.0,93,0.06,,,0.16,weatherlink.com 1.10,2013-01-29 10:54:00,
2013-01-29 06:09:00,39.1,37.0,30.29,SSW,194,2.0,6.0,93,0.06,,,0.17,weatherlink.com 1.10,2013-01-29 11:09:00,
2013-01-29 06:24:00,38.6,37.0,30.29,South,187,0.0,9.0,92,0.04,,,0.17,weatherlink.com 1.10,2013-01-29 11:24:00,
2013-01-29 06:39:00,38.6,37.0,30.30,SSW,208,0.0,5.0,93,0.03,,,0.18,weatherlink.com 1.10,2013-01-29 11:39:00,
2013-01-29 06:54:00,38.4,36.0,30.31,East,98,3.0,5.0,92,0.02,,,0.18,weatherlink.com 1.10,2013-01-29 11:54:00,
2013-01-29 07:09:00,38.3,37.0,30.31,SSW,194,2.0,7.0,93,0.02,,,0.19,weatherlink.com 1.10,2013-01-29 12:09:00,
2013-01-29 07:24:00,38.0,36.0,30.32,South,185,1.0,6.0,93,0.02,,,0.19,weatherlink.com 1.10,2013-01-29 12:24:00,
2013-01-29 07:39:00,37.9,36.0,30.32,SSW,194,0.0,4.0,93,0.02,,,0.20,weatherlink.com 1.10,2013-01-29 12:39:00,
2013-01-29 07:54:00,37.5,36.0,30.33,South,182,0.0,2.0,93,0.01,,,0.20,weatherlink.com 1.10,2013-01-29 12:54:00,
2013-01-29 08:09:00,37.3,36.0,30.33,South,182,0.0,2.0,93,0.01,,,0.20,weatherlink.com 1.10,2013-01-29 13:09:00,
2013-01-29 08:24:00,36.7,35.0,30.33,South,180,0.0,2.0,93,0.01,,,0.20,weatherlink.com 1.10,2013-01-29 13:24:00,
2013-01-29 08:39:00,36.4,35.0,30.34,NNW,340,0.0,5.0,94,0.00,,,0.20,weatherlink.com 1.10,2013-01-29 13:39:00,
2013-01-29 08:54:00,36.4,35.0,30.34,NNW,340,0.0,3.0,95,0.01,,,0.21,weatherlink.com 1.10,2013-01-29 13:54:00,
2013-01-29 09:09:00,36.5,35.0,30.34,NNW,340,0.0,1.0,95,0.01,,,0.21,weatherlink.com 1.10,2013-01-29 14:09:00,
2013-01-29 09:24:00,37.3,36.0,30.35,SSW,210,4.0,7.0,95,0.01,,,0.21,weatherlink.com 1.10,2013-01-29 14:24:00,
2013-01-29 09:39:00,38.4,37.0,30.35,SW,219,0.0,3.0,93,0.01,,,0.21,weatherlink.com 1.10,2013-01-29 14:39:00,
2013-01-29 09:54:00,40.3,38.0,30.35,WNW,302,1.0,3.0,91,0.00,,,0.21,weatherlink.com 1.10,2013-01-29 14:54:00,
2013-01-29 10:09:00,41.6,38.0,30.35,NW,304,3.0,3.0,87,0.00,,,0.00,weatherlink.com 1.10,2013-01-29 15:09:00,
2013-01-29 10:24:00,42.0,39.0,30.36,SSW,202,2.0,7.0,88,0.00,,,0.00,weatherlink.com 1.10,2013-01-29 15:24:00,
2013-01-29 10:39:00,43.5,39.0,30.36,SW,225,4.0,8.0,85,0.00,,,0.00,weatherlink.com 1.10,2013-01-29 15:39:00,
2013-01-29 10:54:00,44.6,40.0,30.36,SW,215,3.0,7.0,83,0.00,,,0.00,weatherlink.com 1.10,2013-01-29 15:54:00,
2013-01-29 11:09:00,45.2,40.0,30.35,SW,218,2.0,7.0,81,0.00,,,0.00,weatherlink.com 1.10,2013-01-29 16:09:00,
2013-01-29 11:24:00,44.9,39.0,30.34,South,185,2.0,6.0,80,0.00,,,0.00,weatherlink.com 1.10,2013-01-29 16:24:00,
2013-01-29 11:39:00,45.6,40.0,30.33,South,174,0.0,6.0,80,0.00,,,0.00,weatherlink.com 1.10,2013-01-29 16:39:00,
2013-01-29 11:54:00,45.8,40.0,30.33,ESE,118,1.0,4.0,79,0.00,,,0.00,weatherlink.com 1.10,2013-01-29 16:54:00,
2013-01-29 12:09:00,46.4,39.0,30.33,SSE,158,1.0,3.0,76,0.00,,,0.00,weatherlink.com 1.10,2013-01-29 17:09:00,
2013-01-29 12:24:00,47.2,40.0,30.32,SE,133,1.0,4.0,76,0.00,,,0.00,weatherlink.com 1.10,2013-01-29 17:24:00,
2013-01-29 12:39:00,48.6,39.0,30.31,SSW,193,1.0,5.0,69,0.00,,,0.00,weatherlink.com 1.10,2013-01-29 17:39:00,
2013-01-29 12:54:00,48.3,38.0,30.31,SSW,194,1.0,7.0,67,0.00,,,0.00,weatherlink.com 1.10,2013-01-29 17:54:00,
2013-01-29 13:09:00,48.3,39.0,30.30,SW,219,1.0,2.0,70,0.00,,,0.00,weatherlink.com 1.10,2013-01-29 18:09:00,
2013-01-29 13:24:00,48.5,38.0,30.30,South,188,1.0,4.0,68,0.00,,,0.00,weatherlink.com 1.10,2013-01-29 18:24:00,
2013-01-29 13:39:00,48.3,39.0,30.29,South,188,0.0,2.0,69,0.00,,,0.00,weatherlink.com 1.10,2013-01-29 18:39:00,
2013-01-29 13:54:00,48.2,38.0,30.29,NE,49,0.0,3.0,69,0.00,,,0.00,weatherlink.com 1.10,2013-01-29 18:54:00,
2013-01-29 14:09:00,47.8,39.0,30.29,ESE,107,1.0,5.0,71,0.00,,,0.00,weatherlink.com 1.10,2013-01-29 19:09:00,
2013-01-29 14:24:00,45.0,39.0,30.30,ENE,63,2.0,9.0,79,0.00,,,0.00,weatherlink.com 1.10,2013-01-29 19:24:00,
2013-01-29 14:39:00,43.6,38.0,30.30,NNW,347,2.0,8.0,82,0.00,,,0.00,weatherlink.com 1.10,2013-01-29 19:39:00,
2013-01-29 14:54:00,43.0,38.0,30.31,South,169,0.0,3.0,83,0.00,,,0.00,weatherlink.com 1.10,2013-01-29 19:54:00,
2013-01-29 15:09:00,42.4,38.0,30.31,WNW,293,0.0,3.0,84,0.00,,,0.00,weatherlink.com 1.10,2013-01-29 20:09:00,
2013-01-29 15:24:00,41.9,37.0,30.30,SSW,196,0.0,4.0,84,0.00,,,0.00,weatherlink.com 1.10,2013-01-29 20:24:00,
2013-01-29 15:39:00,41.4,37.0,30.31,WNW,284,0.0,3.0,85,0.00,,,0.00,weatherlink.com 1.10,2013-01-29 20:39:00,
2013-01-29 15:54:00,40.6,37.0,30.32,SW,217,0.0,6.0,86,0.00,,,0.00,weatherlink.com 1.10,2013-01-29 20:54:00,
2013-01-29 16:09:00,39.8,36.0,30.32,NW,312,0.0,5.0,87,0.00,,,0.00,weatherlink.com 1.10,2013-01-29 21:09:00,
2013-01-29 16:25:00,38.9,36.0,30.33,NW,323,1.0,3.0,88,0.00,,,0.00,weatherlink.com 1.10,2013-01-29 21:25:00,
2013-01-29 16:40:00,38.3,35.0,30.34,NW,323,0.0,2.0,89,0.00,,,0.00,weatherlink.com 1.10,2013-01-29 21:40:00,
2013-01-29 16:55:00,37.9,35.0,30.36,WNW,300,2.0,3.0,90,0.00,,,0.00,weatherlink.com 1.10,2013-01-29 21:55:00,
2013-01-29 17:10:00,37.7,35.0,30.36,ENE,65,3.0,3.0,91,0.01,,,0.01,weatherlink.com 1.10,2013-01-29 22:10:00,
2013-01-29 17:25:00,37.2,35.0,30.34,ENE,69,0.0,2.0,92,0.02,,,0.02,weatherlink.com 1.10,2013-01-29 22:25:00,
2013-01-29 17:40:00,36.6,35.0,30.33,WSW,246,4.0,6.0,93,0.04,,,0.04,weatherlink.com 1.10,2013-01-29 22:40:00,
2013-01-29 17:55:00,36.2,35.0,30.32,NW,313,2.0,4.0,94,0.04,,,0.04,weatherlink.com 1.10,2013-01-29 22:55:00,
2013-01-29 18:10:00,36.1,35.0,30.33,South,191,2.0,5.0,95,0.03,,,0.04,weatherlink.com 1.10,2013-01-29 23:10:00,
2013-01-29 18:25:00,35.9,35.0,30.31,NW,315,1.0,5.0,95,0.02,,,0.04,weatherlink.com 1.10,2013-01-29 23:25:00,
2013-01-29 18:40:00,35.8,35.0,30.32,ENE,67,0.0,9.0,96,0.00,,,0.04,weatherlink.com 1.10,2013-01-29 23:40:00,
2013-01-29 18:55:00,35.7,34.0,30.33,NW,322,2.0,6.0,95,0.00,,,0.04,weatherlink.com 1.10,2013-01-29 23:55:00,
2013-01-29 19:10:00,35.5,34.0,30.34,WNW,298,2.0,5.0,95,0.00,,,0.04,weatherlink.com 1.10,2013-01-30 00:10:00,
2013-01-29 19:25:00,35.2,34.0,30.33,NNW,329,1.0,3.0,96,0.00,,,0.04,weatherlink.com 1.10,2013-01-30 00:25:00,
2013-01-29 19:40:00,35.1,34.0,30.33,NNW,342,0.0,3.0,96,0.00,,,0.04,weatherlink.com 1.10,2013-01-30 00:40:00,
2013-01-29 19:55:00,35.1,34.0,30.33,West,277,0.0,3.0,96,0.00,,,0.04,weatherlink.com 1.10,2013-01-30 00:55:00,
2013-01-29 20:10:00,35.0,34.0,30.33,WNW,289,1.0,2.0,96,0.00,,,0.04,weatherlink.com 1.10,2013-01-30 01:10:00,
2013-01-29 20:25:00,34.8,34.0,30.33,WNW,292,0.0,3.0,97,0.00,,,0.04,weatherlink.com 1.10,2013-01-30 01:25:00,
2013-01-29 20:40:00,34.9,34.0,30.33,WNW,298,1.0,4.0,97,0.00,,,0.04,weatherlink.com 1.10,2013-01-30 01:40:00,
2013-01-29 20:55:00,35.0,34.0,30.33,NNW,331,3.0,4.0,97,0.00,,,0.04,weatherlink.com 1.10,2013-01-30 01:55:00,
2013-01-29 21:10:00,35.2,35.0,30.32,West,262,1.0,4.0,97,0.00,,,0.04,weatherlink.com 1.10,2013-01-30 02:10:00,
2013-01-29 21:25:00,35.2,35.0,30.32,ENE,72,0.0,3.0,97,0.00,,,0.04,weatherlink.com 1.10,2013-01-30 02:25:00,
2013-01-29 21:40:00,35.0,34.0,30.32,WSW,237,1.0,4.0,97,0.00,,,0.04,weatherlink.com 1.10,2013-01-30 02:40:00,
2013-01-29 21:55:00,35.1,34.0,30.31,SSW,212,0.0,5.0,97,0.00,,,0.04,weatherlink.com 1.10,2013-01-30 02:55:00,
2013-01-29 22:10:00,35.2,35.0,30.31,SW,219,0.0,2.0,98,0.00,,,0.04,weatherlink.com 1.10,2013-01-30 03:10:00,
2013-01-29 22:25:00,35.2,35.0,30.31,NNW,339,1.0,3.0,98,0.00,,,0.04,weatherlink.com 1.10,2013-01-30 03:25:00,
2013-01-29 22:40:00,35.2,35.0,30.32,SSE,157,0.0,3.0,97,0.00,,,0.04,weatherlink.com 1.10,2013-01-30 03:40:00,
2013-01-29 22:55:00,35.2,35.0,30.32,NW,305,2.0,2.0,97,0.00,,,0.04,weatherlink.com 1.10,2013-01-30 03:55:00,
2013-01-29 23:10:00,35.1,34.0,30.32,NW,304,0.0,2.0,97,0.00,,,0.04,weatherlink.com 1.10,2013-01-30 04:10:00,
2013-01-29 23:25:00,34.8,34.0,30.31,North,360,0.0,1.0,98,0.00,,,0.04,weatherlink.com 1.10,2013-01-30 04:25:00,
2013-01-29 23:40:00,35.0,35.0,30.31,SW,223,0.0,3.0,98,0.00,,,0.04,weatherlink.com 1.10,2013-01-30 04:40:00,
2013-01-29 23:55:00,35.2,35.0,30.30,WNW,284,2.0,3.0,98,0.00,,,0.04,weatherlink.com 1.10,2013-01-30 04:55:00,